Location: Launois
(49.6535°N, 4.5395°E)
Time: 00:36:12
(UTC+00:00)

CZ-2D R/B - Pass Details

Date: 18 August 2024
Orbit: 790 x 842 km, 98.8° (Epoch: 07 September)

Event Time Altitude Azimuth Distance (km) Brightness Sun altitude
Rises 03:40:09 0° 4° (N) 3,342 5.9 -9.1°
Reaches altitude 10° 03:43:12 10° 346° (NNW) 2,416 4.8 -8.7°
Maximum altitude 03:46:39 18° 306° (NW) 1,929 3.9 -8.2°
Drops below altitude 10° 03:50:07 10° 265° (W) 2,429 4.0 -7.7°
Enters shadow 03:50:54 - 259° (W) 2,641 4.2 -7.6°
